Starlink 11603

operational
NORAD ID: 63671 Int'l Des: 2025-085 Owner: SPXS Country: US Constellation: starlink
LEOCIRCULAR

关于 Starlink 11603

正在加载描述...

实时位置

正在加载3D地球...

即将过境

高度历史

Altitude vs Time

uPlot chart will show altitude changes over time

两行轨道根数

1 63671U 25085H 26036.21688019 .00386476 00000-0 28504-2 0 9990
2 63671 42.9979 114.2465 0001566 175.0046 185.0837 15.71065857 45139
Epoch: Feb 5, 2026 • Age: 9 hours

当前状态

高度 357.9 km
速度 7.70 km/s
星下点 40.46°N, 178.38°W
发射日期 Apr 28, 2025
运行时间 0.7 years
类型 internet

技术详情

分类 Payload
质量 960.00 kg
干质量 910.00 kg
总质量 960.00 kg
长度 0.30 m
直径 4.10 m
跨度 29.00 m
形状 Box + pan
制造商 SPXS
平台类型 Starlink V2MD
阶段状态 In Orbit
所有者/国家 SPXS/US

大型星座

Loading constellations...